GW1753 Weather Reports


Display with metric or nautical units.
time (UTC)temp
F
wind
direction
speed
MPH
gust
MPH
rain 1hr
in
rain 24hr
in
rain mn
in
humidity
%
barometer
mb
20260504223120 55 339 6.0 16.0 0.00 0.00 0.00 30 1018.4
20260504222617 56 340 13.0 19.0 0.00 0.00 0.00 29 1018.4
20260504222114 55 324 7.0 14.0 0.00 0.00 0.00 30 1018.4
20260504221611 55 359 8.0 11.0 0.00 0.00 0.00 29 1018.4
20260504221108 55 332 7.0 16.0 0.00 0.00 0.00 30 1018.4
20260504220604 58 356 15.0 17.0 0.00 0.00 0.00 27 1018.2
20260504215558 55 325 4.0 15.0 0.00 0.00 0.00 29 1018.4
20260504215055 55 333 8.0 18.0 0.00 0.00 0.00 29 1018.5
20260504214551 55 326 10.0 14.0 0.00 0.00 0.00 31 1018.4
20260504214048 55 326 12.0 14.0 0.00 0.00 0.00 30 1018.5
20260504213544 55 327 4.0 13.0 0.00 0.00 0.00 31 1018.7
20260504213041 55 328 8.0 15.0 0.00 0.00 0.00 31 1018.4
20260504212537 55 322 9.0 11.0 0.00 0.00 0.00 31 1018.5
20260504212035 56 343 6.0 11.0 0.00 0.00 0.00 32 1018.7
20260504211531 55 8 11.0 17.0 0.00 0.00 0.00 33 1018.4
20260504211028 55 350 7.0 15.0 0.00 0.00 0.00 33 1018.5
20260504210525 55 19 10.0 17.0 0.00 0.00 0.00 32 1018.4
20260504210022 55 358 11.0 15.0 0.00 0.00 0.00 33 1018.4
20260504205520 56 9 12.0 15.0 0.00 0.00 0.00 31 1018.4
20260504205018 55 334 9.0 17.0 0.00 0.00 0.00 33 1018.6
20260504204515 57 341 4.0 13.0 0.00 0.00 0.00 32 1018.1
20260504204015 57 356 11.0 17.0 0.00 0.00 0.00 31 1018.4
20260504203512 59 338 7.0 9.0 0.00 0.00 0.00 30 1018.1
20260504203009 58 14 11.0 18.0 0.00 0.00 0.00 31 1018.1
20260504202504 58 343 10.0 16.0 0.00 0.00 0.00 31 1017.8
20260504202001 59 334 7.0 15.0 0.00 0.00 0.00 31 1018.2
20260504201459 57 327 8.0 14.0 0.00 0.00 0.00 33 1018.2
20260504200956 58 295 7.0 10.0 0.00 0.00 0.00 31 1017.9
20260504200453 56 29 10.0 16.0 0.00 0.00 0.00 32 1018.0
20260504195949 56 345 10.0 19.0 0.00 0.00 0.00 32 1018.0
20260504195445 57 14 7.0 19.0 0.00 0.00 0.00 32 1018.1
20260504194942 56 332 8.0 13.0 0.00 0.00 0.00 32 1018.0
20260504194438 56 343 11.0 15.0 0.00 0.00 0.00 32 1018.1
20260504193934 56 347 12.0 17.0 0.00 0.00 0.00 32 1017.9
20260504193431 57 5 7.0 10.0 0.00 0.00 0.00 32 1018.1
20260504192930 57 349 9.0 14.0 0.00 0.00 0.00 31 1018.2
20260504192427 56 12 9.0 18.0 0.00 0.00 0.00 32 1018.0
20260504191926 58 340 9.0 17.0 0.00 0.00 0.00 32 1018.0
20260504191424 57 330 10.0 17.0 0.00 0.00 0.00 31 1018.1
20260504190918 57 325 9.0 16.0 0.00 0.00 0.00 31 1018.4
20260504190414 58 359 13.0 17.0 0.00 0.00 0.00 30 1018.1
20260504185911 58 325 9.0 14.0 0.00 0.00 0.00 31 1018.2
20260504185409 60 8 13.0 18.0 0.00 0.00 0.00 29 1018.4
20260504184904 59 320 4.0 13.0 0.00 0.00 0.00 32 1018.2
20260504184400 59 345 13.0 18.0 0.00 0.00 0.00 31 1018.4
20260504183856 59 353 9.0 18.0 0.00 0.00 0.00 31 1018.1
20260504183354 59 354 9.0 14.0 0.00 0.00 0.00 31 1018.4
20260504182851 59 350 6.0 15.0 0.00 0.00 0.00 33 1018.4
20260504182349 59 298 12.0 17.0 0.00 0.00 0.00 31 1018.4
20260504181845 57 333 11.0 21.0 0.00 0.00 0.00 33 1018.4
20260504181343 58 338 7.0 16.0 0.00 0.00 0.00 34 1018.5
20260504180842 58 2 6.0 10.0 0.00 0.00 0.00 33 1018.5
20260504180339 58 328 5.0 17.0 0.00 0.00 0.00 36 1018.5
20260504175837 58 12 10.0 17.0 0.00 0.00 0.00 36 1018.4
20260504175334 56 308 10.0 16.0 0.00 0.00 0.00 35 1018.5
20260504174832 57 4 6.0 13.0 0.00 0.00 0.00 37 1018.6
20260504174329 57 326 7.0 14.0 0.00 0.00 0.00 37 1018.6
20260504173826 56 315 9.0 14.0 0.00 0.00 0.00 37 1018.6
20260504173323 57 350 8.0 11.0 0.00 0.00 0.00 36 1018.5
20260504172820 56 338 12.0 13.0 0.00 0.00 0.00 38 1018.7
20260504172317 57 339 10.0 15.0 0.00 0.00 0.00 36 1018.6
20260504171812 58 323 5.0 13.0 0.00 0.00 0.00 37 1018.6
20260504171310 55 0 10.0 18.0 0.00 0.00 0.00 38 1018.6
20260504170807 55 2 7.0 14.0 0.00 0.00 0.00 41 1018.5
20260504170304 56 2 9.0 11.0 0.00 0.00 0.00 41 1018.5
20260504160222 53 330 4.0 11.0 0.00 0.00 0.00 49 1018.7
20260504150647 50 289 5.0 11.0 0.00 0.00 0.00 56 1019.0
20260504150144 49 290 7.0 13.0 0.00 0.00 0.00 58 1018.9
20260504141113 48 297 7.0 11.0 0.00 0.00 0.00 62 1018.9
20260504140610 48 316 5.0 9.0 0.00 0.00 0.00 62 1018.9
20260504140105 48 275 3.0 6.0 0.00 0.00 0.00 63 1018.9
20260504130534 46 278 4.0 7.0 0.00 0.00 0.00 64 1018.9
20260504110421 45 296 0.0 0.0 0.00 0.00 0.00 62 1019.1
20260504100338 46 343 0.0 1.0 0.00 0.00 0.00 62 1019.1
20260504081731 50 49 4.0 8.0 0.00 0.00 0.00 51 1018.4
20260504081228 50 26 4.0 7.0 0.00 0.00 0.00 50 1018.4
20260504080724 50 15 1.0 4.0 0.00 0.00 0.00 50 1018.1
20260504080221 50 93 2.0 6.0 0.00 0.00 0.00 49 1018.0
20260504070148 52 30 5.0 8.0 0.00 0.00 0.00 44 1016.3
20260504060109 54 54 4.0 7.0 0.00 0.00 0.00 38 1014.6
20260504050537 57 49 12.0 18.0 0.00 0.00 0.00 38 1013.4
20260504045531 57 37 6.0 13.0 0.00 0.00 0.00 38 1012.9
20260504045026 56 35 0.0 1.0 0.00 0.00 0.00 40 1012.6
20260504044524 57 65 0.0 2.0 0.00 0.00 0.00 39 1012.4
20260504044021 57 330 0.0 2.0 0.00 0.00 0.00 39 1012.4
20260504043518 57 52 0.0 2.0 0.00 0.00 0.00 38 1012.1
20260504043015 57 326 0.0 4.0 0.00 0.00 0.00 38 1012.2
20260504042512 57 346 0.0 3.0 0.00 0.00 0.00 38 1012.2
20260504042009 58 347 0.0 1.0 0.00 0.00 0.00 37 1012.1
20260504041505 59 34 0.0 1.0 0.00 0.00 0.00 37 1011.8
20260504041001 59 44 0.0 1.0 0.00 0.00 0.00 36 1011.9
20260504040458 59 8 1.0 3.0 0.00 0.00 0.00 36 1011.6
20260504035954 59 1 1.0 4.0 0.00 0.00 0.00 36 1011.7
20260504035452 59 349 0.0 1.0 0.00 0.00 0.00 36 1011.2
20260504034948 59 345 0.0 2.0 0.00 0.00 0.00 36 1011.4
20260504034446 60 356 0.0 3.0 0.00 0.00 0.00 35 1011.1
20260504033943 60 62 2.0 6.0 0.00 0.00 0.00 34 1011.1
20260504033441 61 25 0.0 7.0 0.00 0.00 0.00 34 1010.9
20260504032938 61 345 3.0 7.0 0.00 0.00 0.00 33 1011.0
20260504032434 61 39 3.0 6.0 0.00 0.00 0.00 32 1010.7
20260504031931 61 21 3.0 7.0 0.00 0.00 0.00 31 1010.7
20260504031428 61 60 0.0 8.0 0.00 0.00 0.00 31 1010.6
20260504030925 60 29 0.0 2.0 0.00 0.00 0.00 30 1010.3
20260504030422 61 13 0.0 0.0 0.00 0.00 0.00 28 1010.3
20260504025917 61 25 0.0 0.0 0.00 0.00 0.00 28 1010.0
20260504025415 61 326 1.0 4.0 0.00 0.00 0.00 27 1010.3
20260504024912 61 338 0.0 1.0 0.00 0.00 0.00 27 1010.2
20260504024409 61 347 0.0 1.0 0.00 0.00 0.00 26 1010.2
20260504023906 62 352 0.0 1.0 0.00 0.00 0.00 26 1010.2
20260504023402 63 325 0.0 0.0 0.00 0.00 0.00 26 1010.3
20260504022857 64 345 0.0 0.0 0.00 0.00 0.00 25 1010.2
20260504022354 65 306 0.0 2.0 0.00 0.00 0.00 24 1010.3
20260504021851 65 311 0.0 2.0 0.00 0.00 0.00 25 1010.2
20260504021348 66 358 0.0 0.0 0.00 0.00 0.00 25 1010.0
20260504020845 67 325 0.0 0.0 0.00 0.00 0.00 24 1010.0
20260504020342 68 356 0.0 1.0 0.00 0.00 0.00 23 1010.2
20260504015838 69 311 0.0 2.0 0.00 0.00 0.00 23 1010.2
20260504015334 69 3 1.0 3.0 0.00 0.00 0.00 22 1010.2
20260504014831 71 38 1.0 4.0 0.00 0.00 0.00 22 1010.2
20260504014326 72 304 0.0 6.0 0.00 0.00 0.00 22 1010.0
20260504013825 72 336 1.0 6.0 0.00 0.00 0.00 21 1010.2
20260504013322 73 9 6.0 8.0 0.00 0.00 0.00 21 1010.2
20260504012819 73 317 2.0 9.0 0.00 0.00 0.00 21 1010.0
20260504012316 73 336 3.0 6.0 0.00 0.00 0.00 21 1010.0
20260504011814 73 0 2.0 4.0 0.00 0.00 0.00 20 1009.8
20260504011310 74 353 1.0 4.0 0.00 0.00 0.00 20 1010.0
20260504010806 75 338 2.0 6.0 0.00 0.00 0.00 20 1010.0
20260504010301 75 323 3.0 9.0 0.00 0.00 0.00 19 1010.2
20260504005759 75 351 3.0 7.0 0.00 0.00 0.00 20 1010.2
20260504005255 75 19 3.0 6.0 0.00 0.00 0.00 19 1010.4
20260504004753 76 319 2.0 4.0 0.00 0.00 0.00 19 1010.3
20260504004250 76 345 0.0 9.0 0.00 0.00 0.00 19 1010.5
20260504003747 75 326 11.0 14.0 0.00 0.00 0.00 19 1010.4
20260504003244 76 332 5.0 9.0 0.00 0.00 0.00 18 1010.4
20260504002740 77 347 4.0 7.0 0.00 0.00 0.00 18 1010.4
20260504002237 76 344 6.0 11.0 0.00 0.00 0.00 18 1010.6
20260504001735 77 355 8.0 15.0 0.00 0.00 0.00 18 1010.7
20260504001232 77 318 4.0 7.0 0.00 0.00 0.00 18 1010.4
20260504000728 77 357 4.0 8.0 0.00 0.00 0.00 19 1010.5
20260504000226 77 304 5.0 14.0 0.00 0.00 0.00 18 1010.5
20260503235724 77 300 4.0 10.0 0.00 0.00 0.00 17 1010.5
20260503235220 77 342 9.0 11.0 0.00 0.00 0.00 17 1010.6
20260503234718 77 308 8.0 11.0 0.00 0.00 0.00 17 1010.6
20260503234216 77 285 3.0 7.0 0.00 0.00 0.00 18 1010.6
20260503233713 77 12 7.0 11.0 0.00 0.00 0.00 18 1010.8
20260503233208 77 324 5.0 10.0 0.00 0.00 0.00 18 1010.8
20260503232705 77 337 8.0 10.0 0.00 0.00 0.00 17 1010.8
20260503232203 77 280 7.0 9.0 0.00 0.00 0.00 17 1010.7
20260503231701 77 325 6.0 9.0 0.00 0.00 0.00 17 1010.8
20260503231157 77 324 8.0 11.0 0.00 0.00 0.00 18 1010.8
20260503230654 77 294 3.0 9.0 0.00 0.00 0.00 18 1010.9
20260503230151 77 13 12.0 14.0 0.00 0.00 0.00 17 1011.0
20260503225648 77 338 6.0 10.0 0.00 0.00 0.00 18 1011.0
20260503225148 77 280 2.0 9.0 0.00 0.00 0.00 18 1011.1
20260503224646 77 317 5.0 7.0 0.00 0.00 0.00 18 1011.1
20260503224143 77 337 4.0 9.0 0.00 0.00 0.00 18 1011.4
20260503223641 77 303 3.0 10.0 0.00 0.00 0.00 19 1011.4